Simultaneous Nadir Overpasses (SNOs) Predictions

Prediction of SNOs between METOP-B and NOAA-19 Satellite Orbit:

Table of predicted SNOs for the next 14.0 days since TLE Epoch: 9/9/2016
Index Date (METOP-B) Time (METOP-B) Lat,Lon (METOP-B) SZA (METOP-B ) Date (NOAA-19) Time (NOAA-19) Lat,Lon (NOAA-19) SZA (NOAA-19 ) Distance(km) Time Diff (sec)
1 09/19/2016 12:28:32 -76.37, 174.65 104.88 09/19/2016 12:27:18 -76.37, 174.65 104.88 0.23 74
2 09/19/2016 13:19:12 76.36, -18.06 75.13 09/19/2016 13:18:15 76.37, -18.08 75.13 1.24 57
3 09/19/2016 14:09:54 -76.35, 149.25 104.87 09/19/2016 14:09:19 -76.33, 149.30 104.89 2.77 35
4 09/19/2016 15:00:34 76.34, -43.46 75.14 09/19/2016 15:00:16 76.32, -43.42 75.12 1.84 18
5 09/19/2016 15:51:16 -76.33, 123.85 104.86 09/19/2016 15:51:21 -76.33, 123.78 104.86 1.88 5
6
